[[{"header":{"parameterUnit":"m.s-1","parameterCategory":1,"la1":30.2991,"la2":30.254,"lo1":-89.0895,"lo2":-89.0444,"dy":0.0017,"dx":0.0017,"nx":28,"ny":28,"refTime":"2025-06-04T21:00:00:Z","depth":0,"parameterNumber":2,"parameterNumberName":"U-component_of_WINDS"},"data":[0,0,0,0,0,0,0,0,0,0,0,0,0,0,0,0,0,0,0,0,0,0,0,0,0,0,0,0,0,0,0,0,0,0,0,0,0,0,0,0,0,0,0,0,0,0,0,0,0,0,0,0,0,0,0,0,0,0,0.7808,0.781,0,0.792,0.7921,0.7922,0.7934,0.7932,0.7931,0.793,0.8051,0.8055,0.8059,0,0,0,0,0,0,0,0,0,0,0,0,0,0.7612,0.7615,0.7808,0.781,0.7811,0.7919,0.7921,0.7922,0.7934,0.7932,0.7931,0.793,0.805,0.8055,0.806,0,0,0,0,0,0,0,0,0,0,0,0,0,0.7708,0.7617,0.7808,0.783,0.7833,0.7919,0.7921,0.7923,0.7934,0.7932,0.7931,0.7929,0.8048,0.8054,0.806,0.8135,0,0,0.808,0.8083,0,0,0,0,0,0,0,0,0.7702,0.7715,0.7825,0.7828,0.7832,0.7911,0.7896,0.7994,0.7935,0.7896,0.793,0.7928,0.8006,0.8016,0.8041,0.8141,0.8146,0.8081,0.8085,0.8087,0.8089,0,0,0,0,0,0,0,0.7696,0.771,0.7853,0.7827,0.7831,0.7836,0.7847,0.7915,0.796,0.7899,0.79,0.7913,0.8008,0.8035,0.8044,0.8148,0.8081,0.8086,0.809,0.8093,0.8315,0.8317,0,0,0,0,0,0,0.7684,0.7705,0.7849,0.7856,0.7761,0.7841,0.7854,0.7887,0.7959,0.7968,0.7914,0.7913,0.8024,0.8036,0.8048,0.814,0.8087,0.8093,0.8097,0.8313,0.8315,0.8318,0,0,0,0,0,0,0.768,0.7697,0.7845,0.7781,0.78,0.7846,0.7884,0.789,0.7917,0.797,0.7979,0.7933,0.8024,0.8039,0.8113,0.8145,0.8096,0.8102,0.8311,0.8314,0.8317,0.8325,0,0,0,0,0,0,0.7674,0.7695,0.7723,0.7781,0.7803,0.7906,0.7885,0.7894,0.7927,0.7927,0.799,0.7999,0.8023,0.8103,0.8119,0.8153,0.8107,0.8308,0.8312,0.8316,0.8322,0.8328,0.8333,0,0,0,0,0,0.7667,0.7722,0.7724,0.7741,0.7838,0.7907,0.792,0.7945,0.793,0.7959,0.7993,0.7997,0.8138,0.8111,0.8129,0.8165,0.8306,0.8311,0.8315,0.832,0.8327,0.8333,0,0,0,0,0,0,0.7669,0.773,0.7733,0.7808,0.7852,0.7909,0.7946,0.7952,0.8003,0.8001,0.8032,0.8046,0.8119,0.8149,0.8117,0.8241,0.8221,0.8229,0.8218,0.8225,0.8231,0.8222,0.8113,0,0,0,0,0,0.7677,0.7726,0.7778,0.784,0.7861,0.79,0.7931,0.7946,0.7994,0.8014,0.8053,0.8102,0.8157,0.8193,0.8247,0.8326,0.8341,0.836,0.8365,0.837,0.8377,0.8422,0.8431,0.8333,0.8333,0.8333,0,0,0.7696,0.7736,0.7766,0.7841,0.7877,0.7929,0.7916,0.7972,0.8011,0.8023,0.8095,0.8125,0.8181,0.8258,0.8294,0.8286,0.8407,0.8375,0.8378,0.8383,0.8427,0.8437,0.8445,0.8336,0.8335,0.8335,0,0,0.7758,0.7792,0.7847,0.7883,0.7937,0.7962,0.7975,0.8031,0.8051,0.8123,0.8133,0.8182,0.8276,0.8315,0.8348,0.8424,0.843,0.8441,0.8469,0.8512,0.852,0.8527,0.8555,0.8564,0.8447,0.8447,0.8447,0,0.7776,0.7852,0.7875,0.793,0.7964,0.7974,0.8031,0.8066,0.8135,0.8159,0.8148,0.8266,0.8305,0.8391,0.8409,0.8435,0.8452,0.8434,0.8517,0.8524,0.8531,0.8558,0.8568,0.8448,0.8448,0.8448,0.8448,0,0.7872,0.7925,0.7963,0.8027,0.8065,0.8121,0.8154,0.819,0.8201,0.8228,0.8302,0.8348,0.8411,0.8433,0.8446,0.8522,0.8515,0.851,0.8491,0.8541,0.8566,0.8577,0.845,0.8449,0.8449,0.8449,0,0,0.7938,0.8013,0.8026,0.8056,0.8116,0.8158,0.8215,0.8275,0.8305,0.8353,0.8402,0.8481,0.8477,0.8514,0.8532,0.8569,0.8627,0.856,0.8562,0.8571,0.8713,0.8717,0.8728,0.8631,0.8633,0.8634,0.8709,0,0.8006,0.8105,0.8127,0.8213,0.8263,0.8274,0.8323,0.8367,0.8393,0.8441,0.8472,0.8527,0.8517,0.8539,0.8577,0.8612,0.8656,0.8607,0.8679,0.8681,0.8664,0.8741,0.8745,0.8813,0.8719,0.8721,0.8722,0,0.8099,0.8146,0.8236,0.8289,0.8311,0.8355,0.8411,0.8457,0.8506,0.8523,0.8564,0.8577,0.8639,0.8616,0.8701,0.8667,0.8698,0.872,0.8723,0.8731,0.8704,0.8752,0.8835,0.8845,0.8738,0.8736,0.8735,0,0.8138,0.8225,0.829,0.8314,0.8378,0.8409,0.8437,0.8485,0.8519,0.8569,0.8592,0.8649,0.8681,0.8726,0.8755,0.8736,0.8839,0.8818,0.8856,0.8855,0.8878,0.8876,0.8967,0.8897,0.8897,0.8896,0.8896,0,0.8212,0.8267,0.8308,0.8348,0.841,0.8436,0.8498,0.8526,0.8569,0.8616,0.863,0.8674,0.871,0.876,0.8784,0.8851,0.8866,0.8882,0.8888,0.8881,0.8879,0.8902,0.8898,0.8899,0.8899,0.8898,0.8898,0,0.8266,0.8296,0.8367,0.8421,0.8436,0.8479,0.8526,0.8567,0.8593,0.8653,0.8669,0.8711,0.8771,0.8804,0.888,0.8896,0.8971,0.8974,0.8953,0.8956,0.8991,0.8988,0.9101,0.9118,0.9036,0.9037,0.9037,0,0.8312,0.8354,0.8411,0.8443,0.8471,0.8522,0.8556,0.8584,0.862,0.8679,0.8713,0.8772,0.8821,0.8916,0.8955,0.9013,0.9018,0.9054,0.9027,0.9019,0.9019,0.9016,0.9021,0.9059,0.906,0.906,0.9061,0,0.8389,0.8401,0.8449,0.8503,0.8543,0.8587,0.8631,0.8656,0.8691,0.8731,0.8791,0.8829,0.8905,0.8964,0.9025,0.9057,0.9065,0.9069,0.9081,0.9074,0.906,0.9068,0.8966,0.9066,0.9066,0.9065,0.9065,0.9065,0.844,0.8478,0.8524,0.8578,0.8613,0.8653,0.8693,0.8724,0.8774,0.8836,0.885,0.8913,0.8963,0.9045,0.9078,0.9129,0.9123,0.914,0.9144,0.9148,0.9149,0.9051,0.914,0.914,0.914,0.914,0.914,0,0.8518,0.8548,0.8597,0.8657,0.8699,0.8701,0.8749,0.8785,0.884,0.8884,0.8932,0.9001,0.9058,0.9101,0.9161,0.9193,0.9199,0.9208,0.9206,0.9213,0.9151,0.9135,0.9203,0.9203,0.9203,0.9203,0.9203,0.9203,0.8564,0.8628,0.8646,0.8728,0.8759,0.8819,0.8846,0.8884,0.8919,0.8995,0.9042,0.9069,0.9113,0.9176,0.923,0.9241,0.9262,0.9271,0.9283,0.9225,0.9218,0.9211,0.9196,0.9276,0.9276,0.9341,0.9342,0.9342]},{"header":{"parameterUnit":"m.s-1","parameterCategory":1,"la1":30.2991,"la2":30.254,"lo1":-89.0895,"lo2":-89.0444,"dy":0.0017,"dx":0.0017,"nx":28,"ny":28,"refTime":"2025-06-04T21:00:00:Z","depth":0,"parameterNumber":3,"parameterNumberName":"V-component_of_WINDS"},"data":[0,0,0,0,0,0,0,0,0,0,0,0,0,0,0,0,0,0,0,0,0,0,0,0,0,0,0,0,0,0,0,0,0,0,0,0,0,0,0,0,0,0,0,0,0,0,0,0,0,0,0,0,0,0,0,0,0,0,3.1191,3.119,0,3.1147,3.1147,3.1146,3.111,3.1109,3.1109,3.1108,3.1062,3.1061,3.106,0,0,0,0,0,0,0,0,0,0,0,0,0,3.124,3.1239,3.1191,3.119,3.119,3.1147,3.1147,3.1146,3.111,3.1109,3.1109,3.1108,3.1062,3.1061,3.106,0,0,0,0,0,0,0,0,0,0,0,0,0,3.121,3.1239,3.1191,3.1166,3.1164,3.1147,3.1147,3.1146,3.111,3.1109,3.1109,3.1108,3.1062,3.1061,3.106,3.1063,0,0,3.1056,3.1055,0,0,0,0,0,0,0,0,3.1211,3.1208,3.117,3.1168,3.1165,3.1133,3.1147,3.1118,3.111,3.113,3.1108,3.1108,3.1086,3.1083,3.1076,3.1061,3.1059,3.1056,3.1055,3.1054,3.1054,0,0,0,0,0,0,0,3.1214,3.121,3.1173,3.117,3.1167,3.1157,3.1152,3.1141,3.1112,3.1128,3.1126,3.1121,3.1084,3.1077,3.1074,3.1058,3.1056,3.1054,3.1054,3.1053,3.1043,3.1044,0,0,0,0,0,0,3.122,3.1212,3.1175,3.1172,3.1187,3.1156,3.1151,3.1144,3.1112,3.1106,3.1122,3.112,3.1079,3.1076,3.1072,3.1073,3.1054,3.1053,3.1052,3.1042,3.1043,3.1044,0,0,0,0,0,0,3.1221,3.1217,3.1176,3.1191,3.1185,3.1156,3.1149,3.1143,3.1136,3.1107,3.1101,3.112,3.1079,3.1074,3.1066,3.1071,3.1052,3.1051,3.1042,3.1043,3.1043,3.1075,0,0,0,0,0,0,3.1223,3.1217,3.1219,3.1191,3.1185,3.1171,3.1149,3.1143,3.1134,3.1131,3.1103,3.1098,3.1078,3.1068,3.1064,3.1069,3.105,3.1041,3.1042,3.1043,3.1074,3.1077,3.108,0,0,0,0,0,3.1224,3.1229,3.1219,3.1215,3.1186,3.1172,3.1168,3.1145,3.1135,3.1136,3.1117,3.1099,3.1071,3.1067,3.1063,3.1067,3.1041,3.1042,3.1043,3.1072,3.1076,3.108,0,0,0,0,0,0,3.1258,3.1225,3.1214,3.121,3.1194,3.1165,3.1166,3.115,3.1136,3.1133,3.1105,3.1099,3.1093,3.108,3.1076,3.1068,3.1054,3.1054,3.1077,3.1081,3.1084,3.1087,3.1049,0,0,0,0,0,3.1265,3.1257,3.1229,3.1228,3.1221,3.1195,3.1188,3.1172,3.1153,3.1146,3.1127,3.1109,3.1096,3.1088,3.1075,3.1072,3.1065,3.1073,3.1076,3.1079,3.1079,3.1075,3.1078,3.1048,3.1048,3.1048,0,0,3.1279,3.126,3.1257,3.1234,3.122,3.1211,3.1189,3.1181,3.1174,3.1145,3.1135,3.112,3.1098,3.1093,3.1089,3.1081,3.1086,3.108,3.1083,3.1081,3.1077,3.108,3.1082,3.1048,3.1048,3.1048,0,0,3.13,3.1286,3.1283,3.1269,3.1248,3.1231,3.123,3.1204,3.1193,3.1184,3.1161,3.1152,3.1131,3.1116,3.1106,3.1121,3.1104,3.1118,3.1134,3.1131,3.1133,3.1135,3.1139,3.1141,3.1119,3.1119,3.1119,0,3.132,3.1306,3.1284,3.1276,3.1267,3.1241,3.1238,3.1225,3.12,3.1194,3.1186,3.1158,3.1142,3.1131,3.1135,3.1128,3.1126,3.112,3.1135,3.1137,3.1138,3.1141,3.1143,3.112,3.112,3.112,3.112,0,3.1331,3.1322,3.1322,3.13,3.129,3.1285,3.1261,3.1254,3.1239,3.1222,3.1212,3.1192,3.1174,3.117,3.1155,3.1157,3.1153,3.114,3.1125,3.1143,3.1146,3.1147,3.1123,3.1122,3.1122,3.1121,0,0,3.137,3.1336,3.1336,3.1325,3.13,3.1292,3.1285,3.1268,3.1262,3.1246,3.1239,3.1222,3.121,3.1198,3.1181,3.1179,3.1191,3.1166,3.1165,3.117,3.119,3.1198,3.1201,3.118,3.118,3.118,3.1191,0,3.1386,3.1373,3.1352,3.1346,3.1337,3.1312,3.1307,3.129,3.1275,3.1264,3.1246,3.1234,3.122,3.1213,3.1209,3.119,3.1194,3.1189,3.1171,3.1171,3.1176,3.1202,3.1211,3.1223,3.1192,3.1192,3.1193,0,3.1401,3.1387,3.138,3.1355,3.1351,3.1346,3.1328,3.1319,3.1299,3.1288,3.1275,3.1257,3.1248,3.1235,3.1221,3.1219,3.121,3.12,3.12,3.1196,3.1182,3.1197,3.1226,3.1227,3.1194,3.1194,3.1194,0,3.1429,3.1408,3.1401,3.1392,3.1364,3.1361,3.1348,3.1329,3.1319,3.1304,3.1297,3.1281,3.1271,3.1258,3.1236,3.1229,3.1224,3.121,3.1213,3.1214,3.1212,3.1212,3.1238,3.1209,3.1209,3.1209,3.1209,0,3.1447,3.1443,3.1413,3.1408,3.1403,3.1379,3.1374,3.136,3.1342,3.1334,3.1312,3.1304,3.1276,3.1265,3.1247,3.1238,3.1234,3.1224,3.1219,3.1225,3.1226,3.1217,3.1215,3.121,3.121,3.121,3.1209,0,3.1476,3.1455,3.1446,3.142,3.1413,3.141,3.1387,3.1381,3.1365,3.1354,3.1351,3.1325,3.131,3.1287,3.1266,3.1254,3.1247,3.124,3.1253,3.125,3.1254,3.1254,3.1274,3.1275,3.1248,3.1248,3.1249,0,3.1488,3.1484,3.1458,3.1451,3.144,3.1429,3.142,3.1397,3.1388,3.1366,3.1362,3.1346,3.1332,3.131,3.1288,3.1271,3.1263,3.1271,3.126,3.1266,3.1261,3.1261,3.1259,3.1273,3.1274,3.1274,3.1274,0,3.1511,3.1501,3.1489,3.1473,3.1463,3.1449,3.1435,3.143,3.1403,3.1394,3.138,3.1369,3.1347,3.1331,3.1311,3.1297,3.1281,3.1278,3.1278,3.1283,3.129,3.1285,3.1259,3.1277,3.1277,3.1277,3.1277,3.1276,3.153,3.1526,3.1507,3.1494,3.1481,3.1467,3.146,3.1444,3.1431,3.1412,3.14,3.1385,3.1365,3.1337,3.1325,3.1312,3.1305,3.1305,3.1305,3.1305,3.1306,3.1294,3.1309,3.1309,3.1309,3.1309,3.1308,0,3.1551,3.1538,3.1526,3.1507,3.1496,3.1483,3.1466,3.1458,3.1446,3.143,3.1416,3.1399,3.1383,3.1361,3.1343,3.1338,3.133,3.1334,3.1333,3.133,3.1314,3.1316,3.1341,3.1341,3.1341,3.1341,3.1341,3.1341,3.156,3.1552,3.154,3.1524,3.1511,3.1497,3.1489,3.1476,3.1462,3.1444,3.1432,3.1418,3.1398,3.1379,3.1364,3.1358,3.1351,3.1358,3.1349,3.1334,3.1331,3.1328,3.1329,3.1357,3.1357,3.1365,3.1365,3.1365]}]]